Location: Arcueil
(48.7999°N, 2.3326°E)
Time: 15:19:06
(UTC+00:00)

Cosmos 2322 Rocket - Pass Details

Date: 03 February 2023
Orbit: 831 x 851 km, 71.0° (Epoch: 25 March)

Event Time Altitude Azimuth Distance (km) Brightness Sun altitude
Rises 18:14:38 0° 200° (SSW) 3,363 5.7 -13.9°
Reaches altitude 10° 18:17:04 10° 198° (SSW) 2,433 5.0 -14.3°
Maximum altitude 18:22:37 74° 115° (ESE) 868 2.1 -15.2°
Drops below altitude 10° 18:28:14 10° 31° (NNE) 2,454 4.3 -16.2°
Enters shadow 18:28:27 - 31° (NNE) 2,541 4.3 -16.2°
